Location: Guaduarajo
(5.5219°N, 75.6061°W)
Time: 04:21:50
(UTC+00:00)

Daily predictions for brighter satellites

Satellite Brightness Start Highest point End
(mag) Time Altitude Azimuth Time Altitude Azimuth Time Altitude Azimuth
Intelsat 5-3 Rocket 4.0 00:03:10 10° NW 00:07:30 46° NNE 00:11:58 27° E
ARIANE 5 DEB (SYLDA) 3.6 00:05:59 10° WSW 00:07:00 17° SSW 00:07:00 17° SSW
Gbstr 26 Del rocket 4.3 00:03:29 10° S 00:08:39 38° ESE 00:10:50 30° E
Cosmos 1437 2.8 00:06:14 10° N 00:08:34 49° NNE 00:08:34 49° NNE
CZ-2D R/B 4.1 00:06:07 10° S 00:09:53 51° W 00:13:39 10° NNW
Cosmos 2151 Rocket 3.4 00:08:04 10° S 00:12:28 85° E 00:16:54 10° N
MOS 1 Rocket 4.0 00:08:35 10° N 00:12:42 50° WNW 00:16:52 10° SSW
SJ-11-01 4.5 00:13:36 34° SE 00:15:06 47° ENE 00:19:37 10° N
Cosmos 1932 4.3 00:09:09 10° NNW 00:15:25 88° ENE 00:21:35 10° SSE
SL-16 R/B 4.3 00:11:25 10° NW 00:16:04 27° WSW 00:20:46 10° SSW
Ariane H10+ 2.6 00:14:21 10° WSW 00:15:55 34° SW 00:15:55 34° SW
ASTRO E2 2.8 00:15:42 10° WNW 00:19:38 67° SSW 00:20:19 54° SSE
Centaur AC-119 3.8 00:16:52 10° W 00:20:59 22° NW 00:22:04 18° N
Cosmos 1125 Rocket 4.1 00:15:55 10° SSW 00:21:05 58° WNW 00:26:17 10° N
CSL-04 Debris 4.0 00:21:36 10° SSE 00:27:00 79° ENE 00:32:22 10° N
ARIANE 44P R/B 3.9 00:25:42 10° WSW 00:28:31 34° S 00:29:17 32° SSE
NOSS 3-4 (A) 4.2 00:25:22 10° SW 00:31:06 49° WNW 00:36:44 10° N
NOSS 3-4 (C) 4.1 00:25:28 10° SW 00:31:13 50° WNW 00:36:51 10° N
CSL-04 Rocket 3.5 00:28:26 10° SSE 00:33:46 87° ENE 00:39:10 10° NNW
NATO 3D Rocket 3.9 00:32:52 10° W 00:37:59 46° NNW 00:38:39 43° N
Cosmos 1943 3.0 00:34:26 10° N 00:40:05 74° ENE 00:40:16 73° E
Meteor 1-15 Rocket 4.5 00:38:14 10° SSW 00:43:44 66° W 00:49:16 10° N
ARIANE DEB (SPELDA) 3.5 00:42:09 10° WSW 00:45:01 48° S 00:45:01 48° S
DMSP B5D2-2 4.3 00:41:22 10° N 00:46:35 68° WNW 00:51:48 10° SSW
H-2A R/B 2.0 00:48:52 72° WSW 00:48:52 72° WSW 00:53:46 10° NNW
ATLAS 2AS CENTAUR R/B 3.9 00:45:32 10° SW 00:52:40 46° WNW 01:00:11 10° N
Cosmos 1603 4.4 00:56:28 10° NNW 01:01:52 50° WSW 01:03:02 43° SW
ISO 4.0 00:31:21 10° W 01:20:09 65° S 01:20:31 64° S
Ariane H10 3.7 01:12:13 10° W 01:22:14 52° WSW 01:22:14 52° WSW
Milstar 3 Cent rocket 4.4 07:40:34 57° ESE 07:40:34 57° ESE 07:54:24 10° ESE
Hubble Space Telescope 4.0 08:29:49 11° ENE 08:29:49 11° ENE 08:29:59 10° ENE
Cosmos 2360 Rocket 3.5 08:35:23 35° NE 08:35:23 35° NE 08:38:42 10° NNE
Ariane H10 4.0 08:39:21 74° SSE 08:39:21 74° SSE 09:03:03 10° E
Ariane H10+ 3.5 08:50:57 39° S 08:50:57 39° S 08:54:15 10° SE
ARIANE 5 DEB (SYLDA) 4.0 08:48:56 53° WSW 08:51:39 74° S 08:57:08 10° E
ARIANE 5 R/B 3.6 08:53:38 47° E 08:53:38 47° E 08:56:15 10° E
Ariane H10 4.1 08:59:26 28° SE 08:59:26 28° SE 09:03:16 10° E
FENGYUN 3A 4.5 09:00:25 10° NNE 09:05:37 50° ESE 09:10:51 10° S
Cosmos 1814 Rocket 4.2 09:06:52 57° N 09:06:52 57° N 09:10:57 10° N
IRIDIUM 114 4.4 09:02:19 10° N 09:07:31 77° E 09:12:43 10° S
Cosmos 2263 Rocket 4.3 09:06:58 10° NNE 09:11:38 26° ENE 09:16:17 10° SE
H-2A R/B (2) 2.8 09:10:05 46° NW 09:11:45 74° NNE 09:33:34 10° ESE
Meteor 2-9 4.4 09:09:32 10° N 09:14:55 83° W 09:20:17 10° S
SWIFT 4.0 09:14:49 25° SSE 09:15:11 25° SSE 09:18:45 10° ESE
IRIDIUM 103 4.1 09:11:26 10° N 09:16:38 82° W 09:21:51 10° S
Cosmos 1862 Rocket 3.6 09:14:48 21° S 09:17:42 76° E 09:22:05 10° N
Cosmos 2219 Rocket 3.0 09:18:09 10° S 09:23:35 51° ESE 09:29:02 10° NNE
ADEOS 3.4 09:19:27 10° N 09:24:36 66° WNW 09:28:13 20° SSW
H-2A R/B 1.8 09:21:44 10° S 09:25:57 82° W 09:30:15 10° NNW
CZ-4B R/B 4.4 09:24:04 10° ESE 09:25:58 15° ENE 09:27:52 10° NE
Sakura Rocket 3.9 09:25:27 31° NNW 09:26:36 38° NNE 09:30:07 10° E
Delta 2 Rocket 4.4 09:29:04 24° N 09:29:04 24° N 09:30:51 10° NNE
Cosmos 1869 Rocket 3.3 09:25:03 10° N 09:29:19 68° W 09:33:37 10° S
COSMOS 2428 3.6 09:24:30 10° S 09:29:58 50° ESE 09:35:27 10° NNE
ARIANE 5 R/B 4.2 01:14:32 10° W 09:30:17 61° S 09:36:08 10° ESE
IRIDIUM 106 4.4 09:29:55 10° NNW 09:34:55 48° W 09:39:56 10° SSW
Landsat 5 3.7 09:32:03 10° S 09:36:23 53° WSW 09:40:47 10° NNW
Ariane 44LP R/B 3.7 09:35:38 45° WSW 09:36:37 68° S 09:42:44 10° E
Dummy Sat-02 4.5 09:33:02 10° S 09:36:50 72° W 09:40:35 10° N
CZ-3 R/B 3.9 09:08:29 10° SW 09:38:12 49° SSE 09:45:54 10° E
SJ 16-02 1.6 09:34:47 10° N 09:39:08 70° ENE 09:43:31 10° SSE
ERS-2 2.3 09:35:36 10° SSE 09:39:14 72° ENE 09:42:52 10° N
Cosmos 2333 Rocket 2.2 09:34:01 10° SSW 09:39:46 89° ESE 09:45:32 10° NNE
Okean 1 3.5 09:38:10 10° S 09:42:11 74° E 09:46:13 10° N
Meteor 2-20 4.4 09:36:09 10° SSW 09:42:16 67° W 09:48:21 10° N
ARIANE 5 R/B 2.8 09:44:37 22° SSE 09:44:37 22° SSE 09:46:11 10° ESE
Meteor 1-5 Rocket 4.3 09:39:26 10° NNW 09:44:42 51° W 09:50:10 10° S
Cosmos 1153 Rocket 4.4 09:38:42 10° N 09:44:56 69° W 09:51:06 10° S
Cosmos 2322 3.8 09:42:46 10° SSW 09:48:17 52° WNW 09:53:45 10° N
Meteor 1-19 Rocket 4.5 09:45:04 10° S 09:50:26 68° E 09:55:49 10° NNE
Intelsat 5-1 Rocket 3.8 09:50:22 23° W 09:54:24 71° SSW 10:11:58 10° ESE
GPS 2-12 Rocket1 3.2 09:55:40 20° SW 09:58:39 64° SSE 10:03:02 10° ENE
Cosmos 990 Rocket 4.2 09:55:03 10° N 10:00:14 75° ENE 10:05:28 10° SSE
Atlas Centaur 2 3.3 09:56:43 10° SSW 10:00:26 29° SE 10:04:53 10° E
FALCON 9 DEB 2.8 09:58:21 15° SSW 10:00:52 88° SE 10:04:00 10° NE
Spot 2 4.4 09:58:04 10° NNE 10:02:03 63° ESE 10:06:09 10° S
CZ-4B R/B 2.5 09:58:48 10° N 10:02:19 61° W 10:05:54 10° SSW
Cosmos 1437 Rocket 3.4 10:00:50 10° SSW 10:04:11 31° W 10:07:32 10° NNW
Hubble Space Telescope 2.4 10:05:11 15° WNW 10:07:07 21° NNW 10:10:15 10° NNE
Cosmos 1484 Rocket 4.2 10:05:44 10° NNW 10:08:38 19° WNW 10:11:03 12° WSW
ALOS 3.2 10:04:52 10° NNW 10:08:41 25° WNW 10:12:31 10° SW
Meteor PRIRODA 3.5 10:05:36 10° N 10:09:09 60° WNW 10:12:43 10° SSW
H-2A R/B 3.5 10:06:09 10° NNE 10:10:31 53° ESE 10:14:55 10° S
Cosmos 1703 Rocket 3.4 10:09:02 10° S 10:13:20 68° W 10:17:37 10° N
FALCON 9 DEB 3.0 10:10:46 10° SW 10:13:47 53° WNW 10:16:51 10° NNE
ARGOS Delta rocket 4.1 10:09:58 10° NNE 10:14:43 76° E 10:19:46 10° S
Ariane H10+ 3.8 10:11:02 12° WSW 10:15:04 33° S 10:19:15 10° ESE
Cosmos 1536 3.2 10:12:38 10° NNW 10:16:26 40° W 10:20:14 10° SSW
Cosmos 1515 4.0 10:13:20 10° SSW 10:16:56 41° W 10:20:31 10° NNW
ADEOS Rocket 3.5 10:09:56 10° S 10:17:19 58° WSW 10:24:04 10° NNW
Aurora 2 Rocket 2.7 10:13:41 11° WSW 10:17:31 79° SSE 10:23:08 10° ENE
IUS-13 SRM-1 4.3 10:17:13 10° NNW 10:19:58 36° NE 10:28:36 10° ESE
Meteor 1-31 Rocket 4.3 10:17:41 10° NW 10:20:06 16° WNW 10:22:33 10° WSW
Meteor 1-11 Rocket 4.3 10:19:33 10° NNW 10:24:28 32° W 10:29:21 10° SSW
Cosmos 2100 Rocket 4.2 10:19:40 10° NNW 10:25:44 49° W 10:31:46 10° SSW
CZ-3 Stage 3 2.5 10:24:40 10° SW 10:26:52 65° SE 10:33:20 10° ENE
SAR-Lupe-4 3.7 10:23:38 10° S 10:27:06 51° WSW 10:30:35 10° NNW
Cosmos 2242 Rocket 4.4 10:23:32 10° SW 10:27:20 29° W 10:31:07 10° NNW
USA 281 3.2 10:22:16 10° NNE 10:28:45 67° WNW 10:35:16 10° SSW
USA 234 4.3 10:24:06 10° SE 10:30:19 47° NE 10:36:30 10° NNW
Cosmos 1802 Rocket 4.1 10:24:52 10° NNW 10:31:03 64° W 10:37:20 10° S
Okean 1-7 3.4 10:27:09 10° SSW 10:31:11 41° W 10:35:12 10° NNW
Cosmos 1908 Rocket 4.5 10:29:14 10° N 10:33:36 57° E 10:37:59 10° SSE
BLOCK DM-SL 4.0 10:27:35 10° W 10:33:54 83° S 10:42:09 10° E
Cosmos 1898 Rocket 3.8 10:31:03 10° NNW 10:36:04 46° WSW 10:41:09 10° S
BREEZE-M DEB (TANK) 4.3 10:37:28 10° NW 10:56:28 86° SW 11:01:03 10° SE
